TimeCDT,TemperatureF,Dew PointF,Humidity,Sea Level PressureIn,VisibilityMPH,Wind Direction,Wind SpeedMPH,Gust SpeedMPH,PrecipitationIn,Events,Conditions,WindDirDegrees,DateUTC
12:15 AM,75.4,50.0,41,30.02,10.0,SSE,6.9,-,N/A,,Clear,160,2013-09-15 05:15:00
12:35 AM,74.8,50.0,42,30.03,10.0,Calm,Calm,-,N/A,,Clear,0,2013-09-15 05:35:00
12:55 AM,72.0,50.4,46,30.03,10.0,Calm,Calm,-,N/A,,Clear,0,2013-09-15 05:55:00
1:15 AM,71.1,50.2,48,30.03,10.0,Calm,Calm,-,N/A,,Clear,0,2013-09-15 06:15:00
1:35 AM,70.2,50.0,49,30.03,10.0,Calm,Calm,-,N/A,,Clear,0,2013-09-15 06:35:00
1:55 AM,68.5,49.6,51,30.03,10.0,Calm,Calm,-,N/A,,Clear,0,2013-09-15 06:55:00
2:15 AM,68.5,49.5,50,30.03,10.0,Calm,Calm,-,N/A,,Clear,0,2013-09-15 07:15:00
2:35 AM,68.0,49.1,51,30.03,10.0,Calm,Calm,-,N/A,,Clear,0,2013-09-15 07:35:00
2:55 AM,68.0,48.7,50,30.03,10.0,Calm,Calm,-,N/A,,Clear,0,2013-09-15 07:55:00
3:15 AM,67.5,48.2,50,30.02,10.0,Calm,Calm,-,N/A,,Clear,0,2013-09-15 08:15:00
3:35 AM,67.1,48.2,51,30.02,10.0,Calm,Calm,-,N/A,,Clear,0,2013-09-15 08:35:00
3:55 AM,65.8,48.6,54,30.02,10.0,Calm,Calm,-,N/A,,Clear,0,2013-09-15 08:55:00
4:15 AM,65.3,48.7,55,30.02,10.0,Calm,Calm,-,N/A,,Clear,0,2013-09-15 09:15:00
4:35 AM,63.9,47.7,56,30.02,10.0,Calm,Calm,-,N/A,,Clear,0,2013-09-15 09:35:00
4:55 AM,64.4,48.4,56,30.02,10.0,Calm,Calm,-,N/A,,Clear,0,2013-09-15 09:55:00
5:15 AM,63.1,47.8,57,30.03,10.0,Calm,Calm,-,N/A,,Clear,0,2013-09-15 10:15:00
5:35 AM,63.7,48.2,57,30.03,10.0,Calm,Calm,-,N/A,,Clear,0,2013-09-15 10:35:00
5:55 AM,64.0,48.2,56,30.04,10.0,Calm,Calm,-,N/A,,Clear,0,2013-09-15 10:55:00
6:15 AM,64.6,48.7,56,30.04,10.0,Calm,Calm,-,N/A,,Clear,0,2013-09-15 11:15:00
6:35 AM,64.6,49.1,57,30.04,10.0,Calm,Calm,-,N/A,,Clear,0,2013-09-15 11:35:00
6:55 AM,63.9,48.6,57,30.05,10.0,Calm,Calm,-,N/A,,Clear,0,2013-09-15 11:55:00
7:15 AM,64.0,48.6,57,30.06,10.0,Calm,Calm,-,N/A,,Clear,0,2013-09-15 12:15:00
7:35 AM,63.9,48.6,57,30.07,10.0,Calm,Calm,-,N/A,,Clear,0,2013-09-15 12:35:00
7:55 AM,64.0,48.6,57,30.07,10.0,Calm,Calm,-,N/A,,Clear,0,2013-09-15 12:55:00
8:15 AM,64.0,49.1,58,30.08,10.0,Calm,Calm,-,N/A,,Clear,0,2013-09-15 13:15:00
8:35 AM,65.3,49.6,57,30.09,10.0,Calm,Calm,-,N/A,,Clear,0,2013-09-15 13:35:00
8:55 AM,67.8,50.4,54,30.09,10.0,Calm,Calm,-,N/A,,Clear,0,2013-09-15 13:55:00
9:15 AM,69.4,52.2,54,30.10,10.0,Calm,Calm,-,N/A,,Clear,0,2013-09-15 14:15:00
9:35 AM,73.9,56.8,55,30.10,10.0,SSE,10.4,-,N/A,,Clear,160,2013-09-15 14:35:00
9:55 AM,75.7,58.1,54,30.10,10.0,South,13.8,19.6,N/A,,Clear,170,2013-09-15 14:55:00
10:15 AM,75.7,58.1,54,30.11,10.0,South,13.8,-,N/A,,Clear,170,2013-09-15 15:15:00
10:35 AM,78.8,58.3,49,30.11,10.0,South,12.7,-,N/A,,Clear,170,2013-09-15 15:35:00
10:55 AM,79.9,56.5,45,30.11,10.0,SSE,12.7,20.7,N/A,,Clear,160,2013-09-15 15:55:00
11:15 AM,81.5,55.4,41,30.11,10.0,SSE,16.1,19.6,N/A,,Clear,160,2013-09-15 16:15:00
11:35 AM,82.8,55.0,38,30.11,10.0,SSE,13.8,19.6,N/A,,Clear,160,2013-09-15 16:35:00
11:55 AM,82.4,51.8,35,30.11,10.0,SSE,11.5,15.0,N/A,,Clear,160,2013-09-15 16:55:00
12:15 PM,83.8,49.5,30,30.11,10.0,South,12.7,16.1,N/A,,Clear,170,2013-09-15 17:15:00
12:35 PM,85.3,47.5,27,30.11,10.0,South,11.5,21.9,N/A,,Clear,170,2013-09-15 17:35:00
12:55 PM,86.7,48.7,27,30.10,10.0,SSE,10.4,18.4,N/A,,Clear,160,2013-09-15 17:55:00
1:15 PM,86.0,46.6,25,30.09,10.0,South,16.1,21.9,N/A,,Clear,180,2013-09-15 18:15:00
1:35 PM,86.5,45.5,24,30.09,10.0,SSE,16.1,24.2,N/A,,Clear,160,2013-09-15 18:35:00
1:55 PM,86.4,47.5,26,30.09,10.0,SSE,16.1,23.0,N/A,,Clear,160,2013-09-15 18:55:00
2:15 PM,88.5,45.9,23,30.09,10.0,SSE,17.3,23.0,N/A,,Clear,160,2013-09-15 19:15:00
2:35 PM,88.9,40.6,18,30.08,10.0,SSE,15.0,24.2,N/A,,Clear,160,2013-09-15 19:35:00
2:55 PM,90.0,44.1,20,30.07,10.0,SSE,10.4,20.7,N/A,,Clear,160,2013-09-15 19:55:00
3:15 PM,89.1,42.3,19,30.06,10.0,SE,12.7,18.4,N/A,,Clear,130,2013-09-15 20:15:00
3:35 PM,90.9,42.4,19,30.06,10.0,South,13.8,18.4,N/A,,Clear,170,2013-09-15 20:35:00
3:55 PM,90.1,43.2,19,30.05,10.0,SE,16.1,23.0,N/A,,Clear,140,2013-09-15 20:55:00
4:15 PM,90.9,43.5,19,30.05,10.0,SSE,16.1,21.9,N/A,,Clear,160,2013-09-15 21:15:00
4:35 PM,89.8,41.2,18,30.04,10.0,SE,10.4,-,N/A,,Clear,130,2013-09-15 21:35:00
4:55 PM,90.5,43.5,20,30.04,10.0,SSE,15.0,23.0,N/A,,Clear,160,2013-09-15 21:55:00
5:15 PM,89.6,46.0,22,30.03,10.0,SE,12.7,18.4,N/A,,Clear,130,2013-09-15 22:15:00
5:35 PM,91.6,45.7,20,30.03,10.0,SSE,12.7,20.7,N/A,,Clear,160,2013-09-15 22:35:00
5:55 PM,88.9,45.5,22,30.03,10.0,SE,13.8,23.0,N/A,,Clear,130,2013-09-15 22:55:00
6:15 PM,87.6,46.8,24,30.04,10.0,SSE,10.4,19.6,N/A,,Clear,150,2013-09-15 23:15:00
6:35 PM,88.9,45.1,22,30.04,10.0,SE,15.0,18.4,N/A,,Clear,140,2013-09-15 23:35:00
6:55 PM,86.7,46.4,25,30.05,10.0,SSE,11.5,16.1,N/A,,Clear,150,2013-09-15 23:55:00
7:15 PM,86.2,43.7,23,30.05,10.0,SSE,11.5,-,N/A,,Clear,150,2013-09-16 00:15:00
7:35 PM,85.6,42.1,22,30.06,10.0,SSE,8.1,-,N/A,,Clear,150,2013-09-16 00:35:00
7:55 PM,84.6,44.4,24,30.07,10.0,SSE,9.2,-,N/A,,Clear,150,2013-09-16 00:55:00
8:15 PM,83.8,44.6,25,30.07,10.0,SE,3.5,-,N/A,,Clear,140,2013-09-16 01:15:00
8:35 PM,83.5,48.9,30,30.08,10.0,SSE,11.5,-,N/A,,Clear,150,2013-09-16 01:35:00
8:55 PM,83.1,49.1,31,30.09,10.0,SSE,10.4,-,N/A,,Clear,160,2013-09-16 01:55:00
9:15 PM,82.2,48.7,31,30.09,10.0,SSE,8.1,-,N/A,,Clear,160,2013-09-16 02:15:00
9:35 PM,81.5,48.4,31,30.10,10.0,SSE,8.1,-,N/A,,Clear,160,2013-09-16 02:35:00
9:55 PM,81.7,48.4,31,30.10,10.0,SSE,8.1,-,N/A,,Clear,160,2013-09-16 02:55:00
10:15 PM,81.5,48.4,31,30.11,10.0,SSE,11.5,-,N/A,,Clear,160,2013-09-16 03:15:00
10:35 PM,80.6,48.6,33,30.11,10.0,South,9.2,-,N/A,,Clear,170,2013-09-16 03:35:00
10:55 PM,79.3,48.9,34,30.11,10.0,South,8.1,-,N/A,,Clear,170,2013-09-16 03:55:00
11:15 PM,78.3,48.7,35,30.11,10.0,South,5.8,-,N/A,,Clear,170,2013-09-16 04:15:00
11:35 PM,76.8,49.3,38,30.12,10.0,South,4.6,-,N/A,,Clear,170,2013-09-16 04:35:00
11:55 PM,75.7,50.0,40,30.12,10.0,Calm,Calm,-,N/A,,Clear,0,2013-09-16 04:55:00